Tracking 31027 objects as of 19-Jul-2025
HD Live streaming from Space Station
objects crossing your sky now

SL-16 DEB

Track SL-16 DEB now!
10-day predictions


NORAD ID: 22665
Int'l Code: 1992-093JA
Perigee: 825.6 km
Apogee: 926.1 km
Inclination: 71.1 °
Period: 102.3 minutes
Semi major axis: 7246 km
RCS: 0.0118 m2 (small)
Launch date: December 25, 1992
Source: Commonwealth of Independent States (former USSR) (CIS)
Launch site: TYURATAM MISSILE AND SPACE COMPLEX (TTMTR)

Note: This is SATELLITE DEBRIS
Your satellite tracking list
FENGYUN 1C DEB
Track 1 satellite(s)




NASA's NSSDC Master Catalog

Two Line Element Set (TLE):
1 22665U 92093JA  25198.37048345  .00000190  00000-0  13783-3 0  9998
2 22665  71.0792 324.2084 0069358 259.6983 131.5685 14.07266179654721
Source of the keplerian elements: AFSPC